Time,TemperatureF,DewpointF,PressureIn,WindDirection,WindDirectionDegrees,WindSpeedMPH,WindSpeedGustMPH,Humidity,HourlyPrecipIn,Conditions,Clouds,dailyrainin,SoftwareType,DateUTC
2013-03-11 00:00:00,47.7,30.4,29.92,East,93,0.0,0.0,51,0.00,,,0.00,Wunderground v.1.15,2013-03-11 04:00:00,
2013-03-11 00:05:00,47.7,30.4,29.91,South,187,0.0,1.0,51,0.00,,,0.00,Wunderground v.1.15,2013-03-11 04:05:00,
2013-03-11 00:10:00,48.2,30.9,29.91,WSW,248,0.0,0.0,51,0.00,,,0.00,Wunderground v.1.15,2013-03-11 04:10:00,
2013-03-11 00:20:00,48.6,31.8,29.91,NNE,15,0.0,0.0,52,0.00,,,0.00,Wunderground v.1.15,2013-03-11 04:20:00,
2013-03-11 00:30:00,48.6,32.2,29.90,North,5,0.0,0.0,53,0.00,,,0.00,Wunderground v.1.15,2013-03-11 04:30:00,
2013-03-11 00:40:00,49.1,32.7,29.90,West,265,1.0,1.0,53,0.00,,,0.00,Wunderground v.1.15,2013-03-11 04:40:00,
2013-03-11 00:50:00,48.9,33.4,29.90,NNE,26,1.0,1.0,55,0.00,,,0.00,Wunderground v.1.15,2013-03-11 04:50:00,
2013-03-11 00:55:00,48.9,33.9,29.89,NNE,17,1.0,1.0,56,0.00,,,0.00,Wunderground v.1.15,2013-03-11 04:55:00,
2013-03-11 01:05:00,48.5,34.4,29.89,NNE,18,0.0,2.0,58,0.00,,,0.00,Wunderground v.1.15,2013-03-11 05:05:00,
2013-03-11 01:10:00,48.3,34.6,29.88,North,9,0.0,2.0,59,0.00,,,0.00,Wunderground v.1.15,2013-03-11 05:10:00,
2013-03-11 01:20:00,48.3,35.5,29.88,NE,36,1.0,2.0,61,0.00,,,0.00,Wunderground v.1.15,2013-03-11 05:20:00,
2013-03-11 01:30:00,48.2,35.8,29.88,NW,317,1.0,1.0,62,0.00,,,0.00,Wunderground v.1.15,2013-03-11 05:30:00,
2013-03-11 01:40:00,48.3,36.7,29.87,NW,309,0.0,1.0,64,0.00,,,0.00,Wunderground v.1.15,2013-03-11 05:40:00,
2013-03-11 01:50:00,48.3,38.2,29.87,WNW,283,1.0,2.0,68,0.00,,,0.00,Wunderground v.1.15,2013-03-11 05:50:00,
2013-03-11 02:00:00,48.5,39.9,29.87,North,5,1.0,2.0,72,0.00,,,0.00,Wunderground v.1.15,2013-03-11 06:00:00,
2013-03-11 02:10:00,48.5,40.6,29.87,NNE,28,1.0,1.0,74,0.00,,,0.00,Wunderground v.1.15,2013-03-11 06:10:00,
2013-03-11 02:20:00,48.5,41.3,29.87,NNE,28,0.0,1.0,76,0.00,,,0.00,Wunderground v.1.15,2013-03-11 06:20:00,
2013-03-11 02:30:00,48.3,41.4,29.87,NW,308,1.0,1.0,77,0.00,,,0.00,Wunderground v.1.15,2013-03-11 06:30:00,
2013-03-11 02:35:00,48.2,41.7,29.87,North,355,1.0,1.0,78,0.00,,,0.00,Wunderground v.1.15,2013-03-11 06:35:00,
2013-03-11 02:45:00,48.2,42.0,29.86,NW,325,1.0,1.0,79,0.00,,,0.00,Wunderground v.1.15,2013-03-11 06:45:00,
2013-03-11 02:55:00,47.9,42.0,29.85,North,5,1.0,1.0,80,0.00,,,0.00,Wunderground v.1.15,2013-03-11 06:55:00,
2013-03-11 03:05:00,47.6,42.4,29.84,North,5,2.0,3.0,82,0.00,,,0.00,Wunderground v.1.15,2013-03-11 07:05:00,
2013-03-11 03:10:00,47.4,42.2,29.84,North,5,1.0,1.0,82,0.00,,,0.00,Wunderground v.1.15,2013-03-11 07:10:00,
2013-03-11 03:20:00,47.3,42.4,29.84,SSE,161,1.0,1.0,83,0.00,,,0.00,Wunderground v.1.15,2013-03-11 07:20:00,
2013-03-11 03:30:00,47.1,42.5,29.84,NNW,332,1.0,2.0,84,0.00,,,0.00,Wunderground v.1.15,2013-03-11 07:30:00,
2013-03-11 03:40:00,47.0,42.4,29.83,West,273,1.0,2.0,84,0.00,,,0.00,Wunderground v.1.15,2013-03-11 07:40:00,
2013-03-11 03:50:00,46.8,42.5,29.83,North,360,1.0,1.0,85,0.00,,,0.00,Wunderground v.1.15,2013-03-11 07:50:00,
2013-03-11 04:00:00,46.8,42.8,29.84,NE,43,1.0,1.0,86,0.00,,,0.00,Wunderground v.1.15,2013-03-11 08:00:00,
2013-03-11 04:10:00,46.7,42.7,29.85,ENE,69,1.0,9.0,86,0.00,,,0.00,Wunderground v.1.15,2013-03-11 08:10:00,
2013-03-11 04:20:00,46.4,42.7,29.83,NE,48,1.0,1.0,87,0.00,,,0.00,Wunderground v.1.15,2013-03-11 08:20:00,
2013-03-11 04:25:00,46.4,42.7,29.83,NNE,22,1.0,1.0,87,0.00,,,0.00,Wunderground v.1.15,2013-03-11 08:25:00,
2013-03-11 04:35:00,46.2,42.8,29.82,ENE,58,1.0,4.0,88,0.00,,,0.00,Wunderground v.1.15,2013-03-11 08:35:00,
2013-03-11 04:40:00,46.2,42.8,29.82,NNE,16,1.0,1.0,88,0.00,,,0.00,Wunderground v.1.15,2013-03-11 08:40:00,
2013-03-11 04:50:00,46.2,42.8,29.82,WNW,288,0.0,0.0,88,0.00,,,0.00,Wunderground v.1.15,2013-03-11 08:50:00,
2013-03-11 05:00:00,46.2,43.1,29.81,WSW,254,1.0,1.0,89,0.00,,,0.00,Wunderground v.1.15,2013-03-11 09:00:00,
2013-03-11 05:10:00,46.1,43.0,29.81,North,355,1.0,1.0,89,0.00,,,0.00,Wunderground v.1.15,2013-03-11 09:10:00,
2013-03-11 05:20:00,46.0,42.9,29.80,SSW,206,1.0,1.0,89,0.00,,,0.00,Wunderground v.1.15,2013-03-11 09:20:00,
2013-03-11 05:30:00,46.0,42.9,29.81,North,9,1.0,1.0,89,0.00,,,0.00,Wunderground v.1.15,2013-03-11 09:30:00,
2013-03-11 05:40:00,45.8,43.0,29.80,WNW,291,1.0,1.0,90,0.00,,,0.00,Wunderground v.1.15,2013-03-11 09:40:00,
2013-03-11 05:50:00,45.8,42.7,29.80,North,5,1.0,1.0,89,0.00,,,0.00,Wunderground v.1.15,2013-03-11 09:50:00,
2013-03-11 06:00:00,45.7,42.9,29.80,NNE,22,0.0,0.0,90,0.00,,,0.00,Wunderground v.1.15,2013-03-11 10:00:00,
2013-03-11 06:10:00,45.7,42.6,29.81,NNW,344,1.0,1.0,89,0.00,,,0.00,Wunderground v.1.15,2013-03-11 10:10:00,
2013-03-11 06:15:00,45.5,42.4,29.81,NNW,344,1.0,1.0,89,0.00,,,0.00,Wunderground v.1.15,2013-03-11 10:15:00,
2013-03-11 06:20:00,45.5,42.4,29.81,NNW,348,0.0,0.0,89,0.00,,,0.00,Wunderground v.1.15,2013-03-11 10:20:00,
2013-03-11 06:30:00,45.5,42.7,29.82,NE,36,0.0,0.0,90,0.00,,,0.00,Wunderground v.1.15,2013-03-11 10:30:00,
2013-03-11 06:40:00,45.5,42.7,29.81,WSW,251,1.0,6.0,90,0.00,,,0.00,Wunderground v.1.15,2013-03-11 10:40:00,
2013-03-11 06:50:00,45.4,42.9,29.82,WSW,238,1.0,1.0,91,0.00,,,0.00,Wunderground v.1.15,2013-03-11 10:50:00,
2013-03-11 07:00:00,45.4,42.9,29.83,NNE,29,1.0,1.0,91,0.00,,,0.00,Wunderground v.1.15,2013-03-11 11:00:00,
2013-03-11 07:10:00,45.4,42.9,29.83,WNW,300,0.0,0.0,91,0.00,,,0.00,Wunderground v.1.15,2013-03-11 11:10:00,
2013-03-11 07:20:00,45.5,43.0,29.83,NNE,28,1.0,1.0,91,0.00,,,0.00,Wunderground v.1.15,2013-03-11 11:20:00,
2013-03-11 07:30:00,45.5,43.0,29.83,North,5,1.0,1.0,91,0.00,,,0.00,Wunderground v.1.15,2013-03-11 11:30:00,
2013-03-11 07:40:00,45.5,43.0,29.83,NNE,14,1.0,1.0,91,0.00,,,0.00,Wunderground v.1.15,2013-03-11 11:40:00,
2013-03-11 07:50:00,45.4,42.9,29.83,North,360,1.0,1.0,91,0.00,,,0.00,Wunderground v.1.15,2013-03-11 11:50:00,
2013-03-11 08:00:00,45.2,42.7,29.84,SSW,202,1.0,1.0,91,0.00,,,0.00,Wunderground v.1.15,2013-03-11 12:00:00,
2013-03-11 08:10:00,45.2,42.7,29.84,NE,34,0.0,0.0,91,0.00,,,0.00,Wunderground v.1.15,2013-03-11 12:10:00,
2013-03-11 08:20:00,45.2,42.7,29.84,NW,315,1.0,1.0,91,0.00,,,0.00,Wunderground v.1.15,2013-03-11 12:20:00,
2013-03-11 08:25:00,45.2,42.7,29.84,WSW,254,1.0,1.0,91,0.00,,,0.00,Wunderground v.1.15,2013-03-11 12:25:00,
2013-03-11 08:30:00,45.2,42.7,29.85,North,355,1.0,1.0,91,0.00,,,0.00,Wunderground v.1.15,2013-03-11 12:30:00,
2013-03-11 08:40:00,45.1,42.6,29.84,NNE,15,1.0,1.0,91,0.00,,,0.00,Wunderground v.1.15,2013-03-11 12:40:00,
2013-03-11 08:50:00,45.1,42.6,29.84,NNE,26,1.0,2.0,91,0.00,,,0.00,Wunderground v.1.15,2013-03-11 12:50:00,
2013-03-11 09:00:00,45.2,42.7,29.84,WNW,301,1.0,1.0,91,0.00,,,0.00,Wunderground v.1.15,2013-03-11 13:00:00,
2013-03-11 09:10:00,45.2,42.7,29.84,NNW,348,1.0,1.0,91,0.00,,,0.00,Wunderground v.1.15,2013-03-11 13:10:00,
2013-03-11 09:20:00,45.4,42.9,29.83,NNE,33,1.0,1.0,91,0.00,,,0.00,Wunderground v.1.15,2013-03-11 13:20:00,
2013-03-11 09:30:00,45.4,42.9,29.83,SW,232,1.0,1.0,91,0.00,,,0.00,Wunderground v.1.15,2013-03-11 13:30:00,
2013-03-11 09:40:00,45.4,42.9,29.83,NE,39,1.0,1.0,91,0.00,,,0.00,Wunderground v.1.15,2013-03-11 13:40:00,
2013-03-11 09:50:00,45.4,43.2,29.83,NNW,336,1.0,1.0,92,0.00,,,0.00,Wunderground v.1.15,2013-03-11 13:50:00,
2013-03-11 10:00:00,45.5,43.3,29.82,North,5,1.0,2.0,92,0.00,,,0.00,Wunderground v.1.15,2013-03-11 14:00:00,
2013-03-11 10:10:00,45.8,43.6,29.82,NNE,28,2.0,2.0,92,0.00,,,0.00,Wunderground v.1.15,2013-03-11 14:10:00,
2013-03-11 10:20:00,45.7,43.8,29.81,North,355,2.0,2.0,93,0.00,,,0.00,Wunderground v.1.15,2013-03-11 14:20:00,
2013-03-11 10:30:00,45.7,43.8,29.81,ENE,63,1.0,1.0,93,0.00,,,0.00,Wunderground v.1.15,2013-03-11 14:30:00,
2013-03-11 10:40:00,45.7,43.8,29.81,North,10,1.0,1.0,93,0.00,,,0.00,Wunderground v.1.15,2013-03-11 14:40:00,
2013-03-11 10:50:00,45.7,44.1,29.81,NNE,28,1.0,1.0,94,0.00,,,0.00,Wunderground v.1.15,2013-03-11 14:50:00,
2013-03-11 11:00:00,45.7,44.1,29.80,West,271,2.0,2.0,94,0.00,,,0.00,Wunderground v.1.15,2013-03-11 15:00:00,
2013-03-11 11:10:00,45.5,43.9,29.79,NW,315,2.0,2.0,94,0.00,,,0.00,Wunderground v.1.15,2013-03-11 15:10:00,
2013-03-11 11:15:00,45.5,43.9,29.79,NNW,337,2.0,2.0,94,0.00,,,0.00,Wunderground v.1.15,2013-03-11 15:15:00,
2013-03-11 11:25:00,45.5,43.9,29.79,North,351,1.0,1.0,94,0.00,,,0.01,Wunderground v.1.15,2013-03-11 15:25:00,
2013-03-11 11:30:00,45.7,44.4,29.79,NNW,346,1.0,1.0,95,0.00,,,0.01,Wunderground v.1.15,2013-03-11 15:30:00,
2013-03-11 11:40:00,45.7,44.4,29.78,NNE,22,1.0,1.0,95,0.00,,,0.01,Wunderground v.1.15,2013-03-11 15:40:00,
2013-03-11 11:50:00,45.7,44.4,29.78,NNE,26,1.0,2.0,95,0.00,,,0.01,Wunderground v.1.15,2013-03-11 15:50:00,
2013-03-11 11:55:00,45.8,44.4,29.78,NE,34,2.0,2.0,95,0.00,,,0.01,Wunderground v.1.15,2013-03-11 15:55:00,
2013-03-11 12:05:00,46.0,44.6,29.78,NE,42,1.0,2.0,95,0.00,,,0.01,Wunderground v.1.15,2013-03-11 16:05:00,
2013-03-11 12:15:00,46.0,44.6,29.78,West,280,2.0,3.0,95,0.00,,,0.01,Wunderground v.1.15,2013-03-11 16:15:00,
2013-03-11 12:25:00,46.0,44.6,29.78,North,355,1.0,1.0,95,0.00,,,0.01,Wunderground v.1.15,2013-03-11 16:25:00,
2013-03-11 12:35:00,45.8,44.4,29.77,North,5,1.0,1.0,95,0.00,,,0.01,Wunderground v.1.15,2013-03-11 16:35:00,
2013-03-11 12:40:00,46.0,45.7,29.77,NNE,13,1.0,1.0,99,0.00,,,0.01,Wunderground v.1.15,2013-03-11 16:40:00,
2013-03-11 12:50:00,46.1,45.0,29.77,NNE,18,1.0,1.0,96,0.00,,,0.01,Wunderground v.1.15,2013-03-11 16:50:00,
2013-03-11 13:00:00,46.2,45.1,29.76,East,91,1.0,1.0,96,0.00,,,0.01,Wunderground v.1.15,2013-03-11 17:00:00,
2013-03-11 13:10:00,46.2,45.1,29.76,NNE,19,1.0,1.0,96,0.00,,,0.01,Wunderground v.1.15,2013-03-11 17:10:00,
2013-03-11 13:20:00,46.4,45.3,29.76,WNW,289,1.0,2.0,96,0.00,,,0.01,Wunderground v.1.15,2013-03-11 17:20:00,
2013-03-11 13:30:00,46.5,45.4,29.75,NNW,344,1.0,1.0,96,0.00,,,0.01,Wunderground v.1.15,2013-03-11 17:30:00,
2013-03-11 13:40:00,46.8,45.7,29.74,NNE,24,0.0,0.0,96,0.00,,,0.02,Wunderground v.1.15,2013-03-11 17:40:00,
2013-03-11 13:50:00,47.1,46.0,29.73,WSW,244,1.0,1.0,96,0.00,,,0.02,Wunderground v.1.15,2013-03-11 17:50:00,
2013-03-11 14:00:00,47.4,46.3,29.72,North,360,1.0,1.0,96,0.00,,,0.02,Wunderground v.1.15,2013-03-11 18:00:00,
2013-03-11 14:10:00,47.9,46.8,29.70,NNE,24,0.0,0.0,96,0.00,,,0.02,Wunderground v.1.15,2013-03-11 18:10:00,
2013-03-11 14:20:00,48.2,47.1,29.69,NNW,340,1.0,1.0,96,0.00,,,0.02,Wunderground v.1.15,2013-03-11 18:20:00,
2013-03-11 14:25:00,48.5,47.4,29.69,NNW,338,1.0,1.0,96,0.00,,,0.02,Wunderground v.1.15,2013-03-11 18:25:00,
2013-03-11 14:35:00,48.8,47.7,29.69,NE,44,1.0,3.0,96,0.00,,,0.02,Wunderground v.1.15,2013-03-11 18:35:00,
2013-03-11 14:40:00,48.9,47.8,29.68,NE,34,0.0,4.0,96,0.00,,,0.02,Wunderground v.1.15,2013-03-11 18:40:00,
2013-03-11 14:50:00,49.2,48.1,29.67,NE,34,0.0,0.0,96,0.00,,,0.02,Wunderground v.1.15,2013-03-11 18:50:00,
2013-03-11 15:00:00,49.6,48.5,29.66,NW,306,1.0,1.0,96,0.00,,,0.02,Wunderground v.1.15,2013-03-11 19:00:00,
2013-03-11 15:10:00,49.8,48.7,29.66,North,360,1.0,1.0,96,0.00,,,0.02,Wunderground v.1.15,2013-03-11 19:10:00,
2013-03-11 15:20:00,50.1,49.0,29.65,WNW,291,1.0,1.0,96,0.00,,,0.02,Wunderground v.1.15,2013-03-11 19:20:00,
2013-03-11 15:30:00,50.2,48.8,29.67,North,5,1.0,1.0,95,0.00,,,0.02,Wunderground v.1.15,2013-03-11 19:30:00,
2013-03-11 15:40:00,50.5,48.8,29.66,NE,46,1.0,1.0,94,0.00,,,0.02,Wunderground v.1.15,2013-03-11 19:40:00,
2013-03-11 15:50:00,50.5,48.3,29.65,North,355,0.0,0.0,92,0.00,,,0.02,Wunderground v.1.15,2013-03-11 19:50:00,
2013-03-11 15:55:00,50.7,48.2,29.65,North,355,1.0,1.0,91,0.00,,,0.02,Wunderground v.1.15,2013-03-11 19:55:00,
2013-03-11 16:05:00,50.8,48.0,29.65,NE,34,1.0,1.0,90,0.00,,,0.02,Wunderground v.1.15,2013-03-11 20:05:00,
2013-03-11 16:15:00,51.1,47.7,29.65,WSW,254,1.0,2.0,88,0.00,,,0.02,Wunderground v.1.15,2013-03-11 20:15:00,
2013-03-11 16:25:00,51.3,47.3,29.65,NNE,15,1.0,2.0,86,0.00,,,0.02,Wunderground v.1.15,2013-03-11 20:25:00,
2013-03-11 16:30:00,51.4,47.0,29.66,NNW,332,1.0,1.0,85,0.00,,,0.02,Wunderground v.1.15,2013-03-11 20:30:00,
2013-03-11 16:40:00,51.6,46.9,29.62,North,360,1.0,1.0,84,0.00,,,0.02,Wunderground v.1.15,2013-03-11 20:40:00,
2013-03-11 16:50:00,51.6,46.6,29.63,WNW,302,1.0,1.0,83,0.00,,,0.02,Wunderground v.1.15,2013-03-11 20:50:00,
2013-03-11 17:00:00,51.7,47.0,29.62,NNE,30,1.0,4.0,84,0.00,,,0.03,Wunderground v.1.15,2013-03-11 21:00:00,
2013-03-11 17:10:00,51.6,47.5,29.62,North,5,1.0,5.0,86,0.00,,,0.03,Wunderground v.1.15,2013-03-11 21:10:00,
2013-03-11 17:20:00,51.4,47.4,29.62,North,5,1.0,1.0,86,0.00,,,0.04,Wunderground v.1.15,2013-03-11 21:20:00,
2013-03-11 17:30:00,51.1,47.7,29.61,West,267,1.0,1.0,88,0.00,,,0.04,Wunderground v.1.15,2013-03-11 21:30:00,
2013-03-11 17:40:00,51.0,47.9,29.62,NNE,33,1.0,4.0,89,0.16,,,0.07,Wunderground v.1.15,2013-03-11 21:40:00,
2013-03-11 17:50:00,50.8,48.0,29.62,SE,140,1.0,1.0,90,0.09,,,0.08,Wunderground v.1.15,2013-03-11 21:50:00,
2013-03-11 18:00:00,50.7,48.2,29.61,ENE,63,0.0,0.0,91,0.12,,,0.11,Wunderground v.1.15,2013-03-11 22:00:00,
2013-03-11 18:10:00,50.5,48.3,29.61,NE,40,0.0,0.0,92,0.10,,,0.13,Wunderground v.1.15,2013-03-11 22:10:00,
2013-03-11 18:20:00,50.5,48.3,29.62,North,355,1.0,1.0,92,0.16,,,0.15,Wunderground v.1.15,2013-03-11 22:20:00,
2013-03-11 18:30:00,50.5,48.6,29.60,NE,53,1.0,1.0,93,0.15,,,0.19,Wunderground v.1.15,2013-03-11 22:30:00,
2013-03-11 18:40:00,50.4,48.5,29.60,WNW,292,1.0,1.0,93,0.23,,,0.22,Wunderground v.1.15,2013-03-11 22:40:00,
2013-03-11 18:50:00,50.4,48.7,29.63,NNW,345,1.0,2.0,94,0.44,,,0.26,Wunderground v.1.15,2013-03-11 22:50:00,
2013-03-11 19:00:00,50.4,48.7,29.63,North,355,1.0,1.0,94,0.29,,,0.30,Wunderground v.1.15,2013-03-11 23:00:00,
2013-03-11 19:10:00,50.4,48.7,29.62,NNW,327,1.0,1.0,94,0.44,,,0.36,Wunderground v.1.15,2013-03-11 23:10:00,
2013-03-11 19:20:00,50.5,49.1,29.62,North,360,1.0,1.0,95,0.22,,,0.40,Wunderground v.1.15,2013-03-11 23:20:00,
2013-03-11 19:30:00,50.5,49.1,29.62,NE,54,1.0,1.0,95,0.21,,,0.43,Wunderground v.1.15,2013-03-11 23:30:00,
2013-03-11 19:40:00,50.5,49.1,29.62,NE,51,2.0,3.0,95,0.19,,,0.46,Wunderground v.1.15,2013-03-11 23:40:00,
2013-03-11 19:50:00,50.4,49.0,29.63,West,268,2.0,4.0,95,0.15,,,0.48,Wunderground v.1.15,2013-03-11 23:50:00,
2013-03-11 20:00:00,50.4,49.0,29.64,West,264,2.0,2.0,95,0.70,,,0.54,Wunderground v.1.15,2013-03-12 00:00:00,
2013-03-11 20:10:00,50.4,49.0,29.64,WNW,286,0.0,0.0,95,0.40,,,0.60,Wunderground v.1.15,2013-03-12 00:10:00,
2013-03-11 20:20:00,50.4,49.0,29.65,WNW,286,0.0,1.0,95,0.46,,,0.72,Wunderground v.1.15,2013-03-12 00:20:00,
2013-03-11 20:30:00,50.2,48.8,29.65,WNW,286,0.0,0.0,95,0.24,,,0.77,Wunderground v.1.15,2013-03-12 00:30:00,
2013-03-11 20:40:00,50.2,48.8,29.64,WNW,286,0.0,1.0,95,0.23,,,0.81,Wunderground v.1.15,2013-03-12 00:40:00,
2013-03-11 20:50:00,50.2,48.8,29.65,WNW,286,0.0,0.0,95,0.12,,,0.84,Wunderground v.1.15,2013-03-12 00:50:00,
2013-03-11 20:55:00,50.1,48.7,29.64,WNW,286,0.0,0.0,95,0.15,,,0.85,Wunderground v.1.15,2013-03-12 00:55:00,
2013-03-11 21:00:00,50.1,49.0,29.65,WNW,286,0.0,0.0,96,0.13,,,0.86,Wunderground v.1.15,2013-03-12 01:00:00,
2013-03-11 21:10:00,50.1,49.0,29.63,WNW,286,0.0,0.0,96,0.14,,,0.88,Wunderground v.1.15,2013-03-12 01:10:00,
2013-03-11 21:20:00,50.2,49.1,29.63,WNW,282,0.0,0.0,96,0.16,,,0.91,Wunderground v.1.15,2013-03-12 01:20:00,
2013-03-11 21:30:00,50.2,49.1,29.63,WNW,282,0.0,0.0,96,0.17,,,0.94,Wunderground v.1.15,2013-03-12 01:30:00,
2013-03-11 21:40:00,50.1,49.0,29.63,WNW,282,0.0,0.0,96,0.20,,,0.97,Wunderground v.1.15,2013-03-12 01:40:00,
2013-03-11 21:50:00,50.1,49.0,29.62,NNE,26,0.0,1.0,96,0.15,,,1.00,Wunderground v.1.15,2013-03-12 01:50:00,
2013-03-11 22:00:00,50.1,49.0,29.63,NNE,26,1.0,1.0,96,0.09,,,1.01,Wunderground v.1.15,2013-03-12 02:00:00,
2013-03-11 22:10:00,50.1,49.0,29.62,NNE,26,0.0,0.0,96,0.14,,,1.04,Wunderground v.1.15,2013-03-12 02:10:00,
2013-03-11 22:15:00,50.1,49.0,29.62,NNE,26,0.0,0.0,96,0.35,,,1.07,Wunderground v.1.15,2013-03-12 02:15:00,
2013-03-11 22:25:00,50.1,49.0,29.62,NNE,26,0.0,0.0,96,0.11,,,1.09,Wunderground v.1.15,2013-03-12 02:25:00,
2013-03-11 22:35:00,50.1,49.0,29.62,North,11,0.0,0.0,96,0.42,,,1.13,Wunderground v.1.15,2013-03-12 02:35:00,
2013-03-11 22:45:00,50.1,49.0,29.61,North,11,0.0,1.0,96,0.18,,,1.16,Wunderground v.1.15,2013-03-12 02:45:00,
2013-03-11 22:55:00,49.9,48.8,29.60,North,11,0.0,0.0,96,0.31,,,1.19,Wunderground v.1.15,2013-03-12 02:55:00,
2013-03-11 23:00:00,49.8,48.7,29.60,North,11,0.0,0.0,96,0.12,,,1.20,Wunderground v.1.15,2013-03-12 03:00:00,
2013-03-11 23:10:00,49.8,48.7,29.59,North,11,0.0,0.0,96,0.07,,,1.21,Wunderground v.1.15,2013-03-12 03:10:00,
2013-03-11 23:20:00,49.8,48.7,29.60,North,11,0.0,0.0,96,0.12,,,1.23,Wunderground v.1.15,2013-03-12 03:20:00,
2013-03-11 23:30:00,49.8,48.7,29.59,North,11,0.0,0.0,96,0.29,,,1.28,Wunderground v.1.15,2013-03-12 03:30:00,
2013-03-11 23:40:00,49.8,48.7,29.59,North,11,0.0,0.0,96,0.21,,,1.32,Wunderground v.1.15,2013-03-12 03:40:00,
2013-03-11 23:50:00,49.8,48.7,29.58,North,11,0.0,0.0,96,0.19,,,1.35,Wunderground v.1.15,2013-03-12 03:50:00,